Theta_e
325 325 325 324 322 321 319 318 320 320 320 320 320 320 320 319 319 319 319 318 319 318 317 317 319 320 310 302 303 315 349 339 333 308 305 303 307 309 306 310 322 324 330 332 332 329 330
324 324 324 323 322 320 319 319 320 319 319 320 320 319 319 319 319 319 319 318 317 316 317 318 319 320 305 294 311 324 333 327 315 303 301 304 308 311 309 309 320 330 329 328 328 328 329
323 323 322 321 320 321 319 319 319 319 319 319 319 319 319 319 319 319 318 318 317 316 317 318 319 317 305 301 319 320 317 313 308 303 300 302 308 307 309 311 331 329 323 325 327 326 324
322 322 321 320 320 320 320 319 319 319 319 319 319 318 318 319 319 318 317 316 317 317 318 319 320 310 300 313 316 315 317 316 313 306 303 306 310 308 307 324 324 322 321 313 324 326 326
320 321 321 321 321 318 320 320 319 319 319 319 318 318 318 317 317 316 316 315 317 318 321 320 308 305 304 323 315 317 316 312 310 306 303 308 307 303 306 311 307 312 306 314 317 324 322
321 319 321 321 321 319 317 317 318 319 319 318 318 318 315 314 313 313 313 314 318 317 319 319 316 303 307 310 312 309 313 310 305 303 303 301 300 298 297 295 291 304 309 314 313 318 318
320 319 318 318 319 318 318 317 317 316 317 318 318 317 314 314 313 312 309 305 302 302 310 304 304 307 311 313 312 308 310 309 304 301 295 300 296 294 298 299 305 313 313 313 316 319 315
319 318 318 318 319 317 318 317 317 316 315 317 317 317 315 313 312 312 308 300 303 307 300 309 312 312 315 313 307 308 313 306 300 295 298 296 294 300 302 302 310 314 313 313 317 320 318
319 317 316 316 316 317 316 316 317 316 315 315 316 316 314 313 312 307 304 306 309 309 299 305 310 310 310 308 305 305 308 306 300 297 297 294 299 304 303 301 312 310 310 312 313 317 318
318 317 316 316 315 315 316 316 316 316 315 314 314 315 314 311 305 306 304 307 308 308 295 301 301 308 307 306 302 311 309 304 300 298 297 296 302 303 300 300 308 300 318 317 315 312 305
318 318 316 315 315 315 315 316 315 315 315 315 315 314 312 311 302 303 304 307 308 305 286 305 303 310 304 302 302 305 307 304 298 297 296 295 297 298 298 300 310 311 319 317 315 310 310
318 318 317 316 315 315 314 315 315 316 315 315 315 313 312 306 306 306 311 309 306 295 289 302 303 302 300 301 303 305 304 304 304 299 298 298 301 299 300 309 314 320 313 313 312 308 296
318 317 316 315 315 315 314 314 315 315 315 314 313 311 309 310 306 310 308 305 295 290 302 298 297 299 298 299 301 301 300 297 294 291 292 298 297 315 320 314 317 312 303 296 296 297 294
317 317 316 315 316 315 315 315 315 315 314 313 310 308 307 309 307 308 306 301 291 299 294 299 301 300 298 301 301 300 297 294 299 297 293 292 290 312 317 313 310 308 303 298 291 293 299
317 317 316 315 316 315 315 314 314 314 313 312 308 304 304 308 309 305 303 293 294 294 297 298 299 297 297 300 300 299 296 296 298 297 291 292 295 302 316 314 314 308 301 304 300 299 296
318 316 316 316 316 316 315 314 314 314 313 311 305 306 305 312 311 306 298 294 297 301 299 299 293 296 293 297 298 299 299 304 302 303 297 295 292 298 304 314 313 307 309 298 300 293 290
318 317 316 316 316 316 315 314 314 313 312 310 306 302 308 312 309 302 294 294 302 305 301 297 294 294 295 296 298 298 301 305 306 304 301 296 294 295 299 295 302 296 294 294 297 297 293
318 316 316 315 315 314 315 314 313 311 310 305 301 296 309 308 301 294 293 299 302 298 300 298 299 297 296 300 298 300 300 303 309 304 299 299 293 291 294 300 304 300 295 291 289 287 294
317 315 315 314 315 315 315 314 312 311 311 304 297 299 310 307 294 293 297 301 303 297 296 297 297 298 299 295 293 300 302 309 308 304 298 298 293 290 293 298 303 299 299 294 290 288 289
317 315 315 315 316 316 316 314 312 311 311 302 300 296 302 301 298 297 296 298 296 301 299 299 299 299 298 298 298 298 300 306 309 309 315 304 292 294 287 291 296 299 303 303 295 293 292
317 315 314 314 315 316 316 315 313 311 311 305 300 297 300 298 301 302 297 298 297 295 298 297 297 302 296 293 294 295 298 301 306 311 305 298 292 296 294 302 304 304 303 305 300 298 296
317 314 314 314 315 315 316 316 314 312 310 302 295 301 306 303 303 300 295 295 296 295 295 294 296 303 301 295 295 293 295 294 295 302 299 296 291 295 295 302 303 301 304 306 306 308 308
315 314 314 314 314 315 316 316 315 312 308 300 304 306 307 302 302 299 300 302 297 298 299 299 299 299 297 297 301 298 300 298 299 298 295 295 292 291 288 296 297 294 299 304 306 309 308
314 314 314 314 314 316 317 317 315 314 311 307 301 301 302 301 303 304 308 307 300 300 299 300 297 296 299 299 299 300 302 299 300 300 295 294 292 290 288 289 285 297 304 308 308 310 312
314 313 314 314 315 316 317 317 317 315 314 309 306 300 301 299 305 307 308 307 303 298 298 299 300 299 299 295 292 294 294 294 297 299 298 295 293 290 289 286 293 300 303 302 301 302 312
314 314 314 313 314 316 317 317 317 315 315 310 307 305 302 302 301 310 307 307 301 294 297 301 302 298 297 290 291 287 288 291 291 295 294 295 294 292 289 287 285 294 305 308 306 296 310
313 313 313 313 313 314 317 317 317 316 315 312 307 307 302 303 307 308 303 306 306 299 297 300 300 298 296 289 288 290 291 296 289 291 291 289 291 289 290 288 294 302 305 307 293 294 308
313 313 313 313 313 315 316 316 317 316 316 313 306 309 305 303 307 313 313 309 306 300 298 301 301 301 295 291 290 292 292 294 292 294 292 289 289 288 289 286 286 307 307 298 301 305 309
312 313 313 313 314 315 315 316 316 316 316 315 304 308 310 303 305 314 317 318 314 311 304 299 301 300 300 295 294 295 293 294 291 287 296 291 294 292 293 292 300 305 304 306 307 311 311
Wind_Speed
13 13 14 12 13 13 14 13 14 14 14 13 12 12 12 12 12 12 12 12 11 10 9 8 9 9 3 2 9 4 6 16 8 6 5 4 4 3 2 2 4 5 3 6 3 10 6
14 14 14 15 14 14 15 14 14 14 14 13 13 13 12 13 13 12 12 11 12 11 8 7 7 7 1 3 3 5 11 7 6 6 5 5 5 3 2 4 3 3 7 8 10 6 4
15 14 15 14 15 14 14 14 15 14 14 14 14 14 14 14 14 14 14 13 13 10 7 6 5 3 1 10 4 6 8 5 4 5 6 3 2 5 3 2 3 7 8 8 9 3 4
13 13 15 15 14 12 13 15 15 15 14 14 15 15 15 15 15 15 15 15 14 10 6 5 4 1 7 4 2 2 5 2 4 3 2 5 5 0 2 1 6 3 4 4 6 8 2
16 13 13 13 12 14 13 14 15 15 14 14 14 16 16 16 16 16 16 19 14 6 4 4 2 1 9 5 4 7 8 4 5 3 1 4 5 4 1 5 4 7 3 6 2 6 7
15 16 13 14 12 14 15 16 15 15 15 14 14 15 17 18 17 18 21 14 4 3 2 4 4 3 6 4 3 4 4 7 3 5 2 3 4 3 3 5 4 4 4 6 3 3 8
16 15 15 16 15 15 16 16 16 16 16 16 16 15 18 18 17 16 11 2 4 3 3 6 5 4 6 7 2 3 5 6 2 3 4 2 5 5 9 7 5 6 6 9 4 1 5
15 15 15 15 15 16 15 17 18 17 17 18 17 16 19 19 17 14 2 2 4 4 9 8 6 7 7 2 3 1 5 4 4 5 3 6 4 7 6 7 4 7 10 5 3 9 1
15 16 16 16 16 15 17 18 16 18 18 19 19 17 20 20 18 1 2 5 3 3 1 9 6 4 5 6 4 3 6 4 3 4 3 6 5 5 4 3 7 2 5 7 5 7 1
17 15 17 17 17 17 16 17 18 18 19 20 21 19 19 22 2 3 5 2 4 5 6 8 3 5 4 5 3 6 6 4 2 7 4 4 4 5 4 5 8 2 3 12 16 13 3
16 14 16 18 18 18 18 19 20 20 21 21 22 19 17 9 4 2 3 6 4 4 4 1 2 0 2 6 1 3 3 4 2 2 6 8 2 4 5 9 9 4 7 5 4 6 1
15 14 16 17 19 19 19 18 20 19 20 21 20 18 12 2 2 8 10 7 4 7 3 4 1 2 2 1 1 3 2 1 2 3 3 9 4 7 8 1 10 15 9 7 4 4 2
17 16 17 18 19 19 20 21 21 21 22 22 19 11 4 1 4 5 6 4 7 5 5 7 3 1 2 3 2 5 3 4 3 2 2 3 2 3 12 15 4 5 3 3 5 1 5
17 16 17 18 17 21 21 20 22 23 24 24 22 7 8 6 1 6 4 7 7 3 4 3 3 1 1 0 1 2 3 2 4 3 1 0 2 7 8 8 13 10 6 7 7 5 2
17 17 16 19 18 18 21 22 23 24 25 25 16 1 2 5 7 2 6 6 5 3 4 4 4 5 5 4 2 3 2 2 4 7 7 4 4 2 8 5 10 6 4 4 7 2 2
13 16 17 16 17 17 21 22 23 25 27 25 2 3 4 4 7 6 6 4 4 6 4 4 3 1 2 6 3 5 3 4 4 3 4 2 0 1 4 5 5 7 8 4 3 4 4
11 13 15 15 17 17 20 22 22 25 29 15 3 4 3 5 3 6 3 6 6 7 1 4 2 3 2 1 2 3 2 4 2 7 4 1 2 6 2 1 8 2 2 5 5 5 5
10 13 13 15 15 18 19 21 22 22 27 9 3 3 3 2 4 1 2 6 5 4 3 3 3 2 1 2 2 4 3 3 6 2 4 4 4 0 2 6 1 4 3 3 7 3 1
10 15 15 15 15 17 18 19 21 17 15 4 2 3 5 3 2 3 6 6 6 3 1 1 4 2 3 2 2 2 3 6 6 5 3 2 4 4 9 10 8 8 6 3 5 4 0
11 15 14 15 14 16 16 17 18 15 11 2 2 3 5 4 1 4 2 8 3 1 3 5 2 3 5 8 6 2 5 4 6 2 6 8 3 5 5 6 3 6 6 5 4 5 2
11 14 15 14 13 15 16 14 17 16 14 2 1 3 3 3 4 4 3 4 3 3 3 4 5 5 4 3 5 5 5 8 5 9 6 6 4 1 1 6 10 6 4 8 7 2 3
10 14 14 13 14 13 15 14 12 14 11 2 1 2 5 2 3 5 3 2 5 3 4 1 7 4 7 5 3 2 3 2 1 6 5 4 3 1 4 4 10 9 7 6 5 5 3
10 12 13 13 13 13 13 12 11 11 6 2 3 3 3 3 2 1 3 6 5 4 4 6 10 6 4 3 6 4 3 2 1 2 2 3 4 3 2 1 4 6 5 3 3 2 2
10 12 12 13 13 11 12 11 9 8 5 0 2 1 2 4 2 3 4 5 3 4 7 2 5 6 6 1 6 7 7 5 4 7 2 4 4 3 3 4 0 4 1 2 5 2 4
10 11 12 12 13 13 12 10 8 6 3 1 2 2 2 3 3 3 4 4 3 4 1 5 3 4 5 6 5 5 5 3 6 5 8 2 5 4 4 2 4 2 3 2 3 3 1
11 11 12 12 13 13 12 11 7 6 6 2 2 3 1 1 6 3 1 2 2 1 4 1 3 4 8 5 4 3 3 2 1 6 2 4 7 5 2 4 6 5 1 2 3 5 4
11 11 12 12 13 13 13 11 10 6 6 2 3 4 1 2 6 2 3 3 1 2 3 2 3 2 4 3 3 3 3 1 2 2 2 4 4 4 1 2 5 4 2 1 5 8 1
10 12 12 12 13 13 13 11 10 7 6 1 4 4 3 2 7 4 4 2 4 1 5 4 5 4 4 4 3 3 3 4 1 3 3 4 4 2 2 3 2 3 3 5 7 2 2
10 12 12 12 14 14 12 11 10 7 6 2 3 3 2 3 7 4 10 15 11 12 4 2 5 3 5 5 1 3 2 1 3 2 2 0 7 6 7 7 4 3 3 1 3 3 1
Wind_Direction
25 19 14 18 12 10 7 360 356 355 354 351 348 341 339 339 335 331 333 330 321 319 317 316 315 323 350 324 253 319 58 143 143 143 173 147 122 149 222 234 163 163 128 48 33 173 136
21 17 15 17 11 8 5 356 355 353 350 348 345 340 340 337 330 327 326 324 317 313 313 308 311 323 300 318 247 127 108 120 143 149 170 142 165 215 299 276 181 82 86 82 40 65 142
15 12 13 10 8 6 1 351 352 350 347 348 343 340 338 333 329 325 322 311 308 303 295 292 290 284 35 233 68 99 119 167 182 179 130 201 122 57 329 357 158 147 103 70 33 23 94
12 12 10 9 7 7 355 354 352 349 346 346 341 338 334 329 328 323 315 306 301 291 275 255 259 232 250 235 318 212 177 212 192 216 129 157 174 172 218 33 21 33 78 102 23 360 11
12 7 5 1 3 3 356 353 350 346 345 343 337 334 334 335 330 324 318 310 294 261 232 184 172 123 277 307 184 219 160 180 130 104 227 278 142 179 333 99 39 6 118 103 127 42 26
6 6 3 358 360 2 358 353 349 346 343 340 336 335 340 336 334 332 328 318 99 141 181 194 249 336 286 310 238 170 172 135 141 135 161 163 74 102 45 81 210 168 134 93 117 323 40
360 359 359 360 360 357 354 352 349 346 341 336 333 338 336 333 330 336 349 28 6 3 154 226 225 245 272 289 212 176 157 121 76 78 134 184 98 176 202 173 174 140 129 115 98 212 85
358 356 357 356 355 355 351 348 346 343 337 331 328 329 334 330 326 325 315 91 204 156 310 235 245 267 269 129 309 153 118 119 129 209 120 26 219 219 156 186 145 150 123 82 97 158 166
359 357 358 358 356 354 354 349 342 340 334 329 328 326 330 326 317 62 205 234 214 338 125 298 193 212 224 143 215 267 131 159 156 146 172 163 234 145 183 157 121 114 167 170 169 181 308
358 357 357 356 355 354 345 343 342 338 333 326 325 327 330 327 326 327 263 213 291 183 58 284 292 260 175 153 288 224 160 143 46 193 178 227 235 190 199 204 117 223 217 169 158 150 216
358 358 356 353 353 351 347 343 344 338 330 322 319 324 327 332 297 221 293 310 284 64 44 267 259 272 62 135 295 331 130 54 224 209 90 249 259 168 189 210 148 168 100 151 148 102 130
356 356 355 354 351 350 348 339 337 326 321 315 319 321 324 97 240 247 290 313 69 41 10 338 164 242 37 325 254 93 135 69 184 232 190 233 221 170 211 127 149 124 97 85 82 91 359
354 354 353 353 352 348 347 344 332 326 319 316 315 299 260 251 231 304 305 44 45 91 322 320 251 33 156 275 18 138 169 200 164 29 339 314 236 101 105 92 44 90 103 50 40 16 227
352 352 351 352 346 347 345 343 335 330 324 321 321 301 217 225 293 354 38 46 60 251 291 292 9 358 44 116 28 224 104 331 242 161 208 147 14 183 169 171 172 164 183 147 167 211 185
349 351 349 349 345 344 346 344 337 332 329 328 320 311 250 262 190 139 68 54 212 253 248 343 18 30 333 341 79 60 64 242 244 194 178 144 278 291 180 151 139 215 209 169 106 7 73
349 347 347 346 343 342 348 346 340 336 333 334 351 354 269 133 161 67 68 241 243 207 308 54 45 79 318 339 58 60 50 276 327 58 144 311 255 267 240 103 288 157 163 88 350 141 234
345 344 343 345 340 341 347 348 345 341 337 335 33 32 245 170 92 50 142 232 276 264 246 86 9 41 350 108 32 106 191 278 8 351 79 144 91 290 69 150 190 118 254 54 109 124 155
339 337 340 343 342 346 346 349 351 347 343 32 7 27 316 90 60 42 191 195 245 305 42 46 110 115 127 3 17 44 354 227 318 54 6 342 118 303 187 301 118 127 100 146 122 221 177
335 335 338 342 341 343 345 349 350 348 20 335 25 261 312 78 156 289 294 278 215 219 353 84 19 39 51 51 90 356 346 317 33 46 338 321 26 359 357 349 354 53 344 50 94 78 171
328 330 334 337 335 341 340 348 348 342 353 98 25 1 320 52 107 144 347 271 234 122 89 81 46 77 59 28 8 76 2 349 350 52 21 84 41 122 172 234 205 61 353 18 107 82 202
323 328 330 333 337 338 334 337 347 341 345 128 54 260 197 302 319 329 158 268 220 127 54 60 23 77 115 68 20 13 354 348 344 357 34 84 88 52 131 91 81 89 65 32 63 59 97
318 322 326 332 335 337 330 332 337 341 347 56 135 21 353 295 301 345 330 312 200 150 131 85 122 124 105 119 148 283 6 1 271 336 44 5 143 109 49 38 90 71 20 62 53 26 81
314 319 324 328 334 335 323 329 340 344 7 10 317 321 113 265 305 63 256 264 239 125 7 157 152 114 97 170 186 193 183 85 123 150 85 70 109 79 218 222 243 28 346 40 96 12 267
306 310 319 327 332 325 329 331 338 345 24 301 273 37 79 262 234 216 291 313 220 237 144 163 117 118 225 102 87 63 51 42 39 48 74 125 93 78 206 3 146 236 359 30 94 55 103
301 310 318 319 317 319 318 329 331 327 323 268 297 51 146 261 252 271 294 321 333 349 56 157 187 180 116 58 63 50 349 22 355 13 12 20 113 82 117 84 297 315 234 140 98 290 292
296 303 305 312 315 315 312 319 324 313 321 265 239 182 225 162 238 295 277 315 277 211 342 59 55 121 71 77 71 116 193 197 326 343 100 48 68 111 107 137 192 239 205 105 135 291 269
292 298 303 311 314 313 310 306 310 300 303 256 266 204 176 231 266 279 226 225 233 135 167 285 153 65 61 70 79 141 230 187 179 169 348 6 8 100 86 146 283 261 178 121 115 236 319
290 298 301 307 309 306 308 302 294 282 279 255 263 193 186 270 279 260 303 309 338 138 150 221 61 360 46 74 124 202 156 221 99 211 169 170 127 171 88 67 267 167 98 158 213 279 267
294 297 299 304 304 304 307 303 294 280 254 237 279 313 125 216 255 288 264 244 214 227 159 22 163 157 174 94 138 121 140 117 165 243 37 228 178 176 159 212 251 283 236 89 172 122 45